Alma, MI

3:12 PM EDT on July 19, 2019 (GMT -0400)
Gratiot Community

Weather History for KAMN - May, 2019

Change the Weather History Date:

Wednesday, May 8, 2019

  Actual Average Record
Temperature  
Mean Temperature 48 °F -  
Max Temperature 60 °F 67 °F 86 °F (1970)
Min Temperature 36 °F 42 °F 26 °F (1989)
Degree Days  
Heating Degree Days 17    
Moisture  
Dew Point 33 °F    
Average Humidity 55    
Maximum Humidity 89    
Minimum Humidity 32    
Precipitation  
Precipitation 0.00 in - - ()
Sea Level Pressure  
Sea Level Pressure 30.21 in    
Wind  
Wind Speed 8 mph (ENE)    
Max Wind Speed 21 mph    
Max Gust Speed 29 mph    
Visibility 10 miles    
Events      
Averages and records for this station are not official NWS values.
T = Trace of Precipitation, MM = Missing Value Source: NWS Daily Summary

Daily Weather History Graph

Daily Weather History Graph

Search for Another Location

Airport or City:

Astronomy

May. 08, 2019 Rise Set
Actual Time 6:22 AM EDT 8:48 PM EDT
Civil Twilight 5:50 AM EDT 9:20 PM EDT
Nautical Twilight 5:11 AM EDT 10:00 PM EDT
Astronomical Twilight 4:26 AM EDT 10:45 PM EDT
Moon 9:16 AM EDT (5/8) No Moon Set
Length of Visible Light 15h 29m
Length of Day
14h 25m
Waxing Crescent, 15% of the Moon is Illuminated
May 8
Waxing Crescent
May 11
First Quarter
May 18
Full
May 26
Last Quarter
Jun 3
New

Hourly Weather History & Observations

Time (EDT) Temp. Windchill Dew Point Humidity Pressure Visibility Wind Dir Wind Speed Gust Speed Precip Events Conditions
12:15 AM 43.9 °F 39.9 °F 37.2 °F 77% 30.31 in 10.0 mi NE 6.9 mph - N/A   Clear
12:35 AM 43.7 °F 41.1 °F 36.5 °F 76% 30.31 in 10.0 mi NE 4.6 mph - N/A   Clear
12:55 AM 42.6 °F 40.9 °F 36.1 °F 78% 30.32 in 10.0 mi NE 3.5 mph - N/A   Clear
12:56 AM 42.6 °F 40.9 °F 36.1 °F 78% 30.32 in 10.0 mi NNE 3.5 mph - N/A   Clear
1:15 AM 41.9 °F 39.0 °F 36.1 °F 80% 30.32 in 10.0 mi NNE 4.6 mph - N/A   Clear
1:16 AM 41.9 °F 39.0 °F 36.1 °F 80% 30.32 in 10.0 mi NE 4.6 mph - N/A   Clear
1:35 AM 41.7 °F 38.8 °F 35.8 °F 79% 30.32 in 10.0 mi NE 4.6 mph - N/A   Clear
1:55 AM 41.0 °F - 36.5 °F 84% 30.31 in 10.0 mi Calm Calm - N/A   Clear
2:15 AM 41.0 °F - 36.5 °F 84% 30.30 in 10.0 mi Calm Calm - N/A   Clear
2:35 AM 39.9 °F 37.8 °F 35.2 °F 83% 30.29 in 10.0 mi NE 3.5 mph - N/A   Clear
2:55 AM 39.9 °F - 35.6 °F 85% 30.29 in 10.0 mi Calm Calm - N/A   Clear
2:56 AM 39.9 °F - 35.6 °F 85% 30.29 in 10.0 mi Calm Calm - N/A   Clear
3:15 AM 40.1 °F - 35.8 °F 85% 30.30 in 10.0 mi Calm Calm - N/A   Clear
3:16 AM 39.9 °F - 35.6 °F 85% 30.30 in 10.0 mi Calm Calm - N/A   Clear
3:35 AM 39.2 °F 37.0 °F 35.6 °F 87% 30.29 in 10.0 mi NE 3.5 mph - N/A   Clear
3:36 AM 39.2 °F 37.0 °F 35.4 °F 86% 30.29 in 10.0 mi NNE 3.5 mph - N/A   Clear
3:55 AM 39.4 °F 37.2 °F 35.8 °F 87% 30.30 in 10.0 mi NNE 3.5 mph - N/A   Clear
3:56 AM 39.4 °F 36.1 °F 35.8 °F 87% 30.30 in 10.0 mi NNE 4.6 mph - N/A   Clear
4:15 AM 39.4 °F 35.2 °F 35.6 °F 86% 30.30 in 10.0 mi NNE 5.8 mph - N/A   Clear
4:35 AM 39.0 °F 35.7 °F 34.9 °F 85% 30.30 in 10.0 mi NE 4.6 mph - N/A   Clear
4:36 AM 38.8 °F 35.4 °F 34.7 °F 85% 30.30 in 10.0 mi NE 4.6 mph - N/A   Clear
4:55 AM 37.9 °F 33.5 °F 34.5 °F 87% 30.29 in 10.0 mi NNE 5.8 mph - N/A   Clear
5:15 AM 37.8 °F 35.3 °F 34.0 °F 86% 30.31 in 10.0 mi NE 3.5 mph - N/A   Clear
5:35 AM 38.3 °F - 34.7 °F 87% 30.32 in 10.0 mi Calm Calm - N/A   Clear
5:55 AM 36.9 °F 33.1 °F 33.8 °F 89% 30.32 in 10.0 mi NE 4.6 mph - N/A   Clear
6:15 AM 37.0 °F 32.4 °F 32.5 °F 84% 30.32 in 10.0 mi NE 5.8 mph - N/A   Clear
6:16 AM 37.0 °F 32.4 °F 32.5 °F 84% 30.33 in 10.0 mi NE 5.8 mph - N/A   Clear
6:35 AM 37.9 °F 32.7 °F 31.3 °F 77% 30.33 in 10.0 mi ENE 6.9 mph - N/A   Clear
6:36 AM 37.9 °F 32.1 °F 31.1 °F 76% 30.33 in 10.0 mi ENE 8.1 mph - N/A   Clear
6:55 AM 38.3 °F 33.2 °F 31.1 °F 75% 30.32 in 10.0 mi ENE 6.9 mph - N/A   Clear
7:15 AM 39.6 °F 34.7 °F 32.0 °F 74% 30.32 in 10.0 mi ENE 6.9 mph - N/A   Clear
7:16 AM 39.6 °F 34.7 °F 32.0 °F 74% 30.32 in 10.0 mi ENE 6.9 mph - N/A   Clear
7:35 AM 41.9 °F 37.5 °F 32.0 °F 68% 30.33 in 10.0 mi ENE 6.9 mph - N/A   Clear
7:36 AM 41.9 °F 37.5 °F 32.0 °F 68% 30.33 in 10.0 mi ENE 6.9 mph - N/A   Clear
7:55 AM 43.5 °F 38.3 °F 32.0 °F 64% 30.33 in 10.0 mi ENE 9.2 mph - N/A   Clear
7:56 AM 43.5 °F 37.9 °F 32.0 °F 64% 30.33 in 10.0 mi ENE 10.4 mph - N/A   Clear
8:15 AM 45.0 °F 40.1 °F 32.2 °F 61% 30.34 in 10.0 mi ENE 9.2 mph - N/A   Clear
8:16 AM 45.1 °F 40.3 °F 32.2 °F 60% 30.34 in 10.0 mi East 9.2 mph - N/A   Clear
8:35 AM 46.4 °F 41.5 °F 32.0 °F 57% 30.33 in 10.0 mi ENE 10.4 mph - N/A   Clear
8:55 AM 47.3 °F - 30.2 °F 52% 30.31 in 10.0 mi ENE 13.8 mph 19.6 mph N/A   Clear
8:56 AM 47.3 °F - 30.0 °F 51% 30.31 in 10.0 mi ENE 13.8 mph 19.6 mph N/A   Clear
9:15 AM 48.9 °F - 31.1 °F 50% 30.31 in 10.0 mi East 11.5 mph 18.4 mph N/A   Clear
9:35 AM 50.0 °F - 31.6 °F 49% 30.30 in 10.0 mi ENE 17.3 mph 21.9 mph N/A   Clear
9:55 AM 50.9 °F - 31.6 °F 48% 30.31 in 10.0 mi East 12.7 mph - N/A   Clear
9:56 AM 50.9 °F - 31.6 °F 48% 30.31 in 10.0 mi East 11.5 mph - N/A   Clear
10:15 AM 52.7 °F - 32.0 °F 45% 30.30 in 10.0 mi East 15.0 mph 19.6 mph N/A   Clear
10:35 AM 54.0 °F - 31.6 °F 43% 30.28 in 10.0 mi ENE 16.1 mph - N/A   Clear
10:55 AM 54.0 °F - 31.3 °F 42% 30.27 in 10.0 mi ENE 15.0 mph 19.6 mph N/A   Clear
11:15 AM 56.1 °F - 31.3 °F 39% 30.28 in 10.0 mi ENE 16.1 mph 19.6 mph N/A   Clear
11:16 AM 55.9 °F - 30.9 °F 39% 30.28 in 10.0 mi East 13.8 mph 19.6 mph N/A   Clear
11:35 AM 54.9 °F - 31.3 °F 41% 30.28 in 10.0 mi East 16.1 mph 20.7 mph N/A   Scattered Clouds
11:36 AM 55.0 °F - 31.5 °F 41% 30.28 in 10.0 mi East 13.8 mph - N/A   Mostly Cloudy
11:55 AM 56.1 °F - 31.1 °F 39% 30.27 in 10.0 mi East 15.0 mph 18.4 mph N/A   Overcast
11:58 AM 55.9 °F - 31.3 °F 39% 30.27 in 10.0 mi East 15.0 mph 19.6 mph N/A   Overcast
12:15 PM 56.5 °F - 31.3 °F 38% 30.27 in 10.0 mi East 10.4 mph - N/A   Overcast
12:35 PM 56.7 °F - 31.1 °F 38% 30.25 in 10.0 mi East 13.8 mph 21.9 mph N/A   Overcast
12:55 PM 56.7 °F - 31.5 °F 38% 30.23 in 10.0 mi East 12.7 mph 18.4 mph N/A   Overcast
1:15 PM 58.1 °F - 28.8 °F 33% 30.22 in 10.0 mi East 15.0 mph 20.7 mph N/A   Overcast
1:35 PM 59.0 °F - 29.5 °F 33% 30.22 in 10.0 mi East 12.7 mph 17.3 mph N/A   Overcast
1:36 PM 59.0 °F - 29.5 °F 33% 30.22 in 10.0 mi East 12.7 mph 17.3 mph N/A   Overcast
1:55 PM 60.4 °F - 31.6 °F 34% 30.20 in 10.0 mi East 15.0 mph 20.7 mph N/A   Overcast
1:56 PM 60.3 °F - 31.5 °F 34% 30.20 in 10.0 mi East 12.7 mph 20.7 mph N/A   Overcast
2:15 PM 60.4 °F - 30.2 °F 32% 30.19 in 10.0 mi East 15.0 mph 24.2 mph N/A   Overcast
2:16 PM 60.4 °F - 30.2 °F 32% 30.19 in 10.0 mi East 17.3 mph 24.2 mph N/A   Overcast
2:35 PM 60.3 °F - 30.4 °F 32% 30.19 in 10.0 mi East 11.5 mph - N/A   Overcast
2:36 PM 60.3 °F - 30.6 °F 33% 30.19 in 10.0 mi East 12.7 mph 17.3 mph N/A   Overcast
2:55 PM 60.1 °F - 31.8 °F 34% 30.18 in 10.0 mi East 11.5 mph 17.3 mph N/A   Overcast
2:56 PM 60.1 °F - 32.2 °F 35% 30.18 in 10.0 mi ESE 9.2 mph 17.3 mph N/A   Overcast
3:15 PM 59.9 °F - 32.0 °F 35% 30.18 in 10.0 mi ESE 9.2 mph - N/A   Overcast
3:35 PM 59.4 °F - 33.8 °F 38% 30.16 in 10.0 mi East 15.0 mph 19.6 mph N/A   Light Drizzle
3:55 PM 59.2 °F - 34.7 °F 40% 30.16 in 10.0 mi East 9.2 mph 19.6 mph N/A   Overcast
4:15 PM 59.2 °F - 34.2 °F 39% 30.16 in 10.0 mi ESE 11.5 mph 18.4 mph N/A   Overcast
4:35 PM 59.4 °F - 34.9 °F 40% 30.14 in 10.0 mi East 11.5 mph 17.3 mph N/A   Overcast
4:55 PM 59.0 °F - 34.9 °F 40% 30.14 in 10.0 mi East 13.8 mph 19.6 mph N/A   Overcast
5:15 PM 59.0 °F - 35.1 °F 41% 30.12 in 10.0 mi East 10.4 mph - N/A   Overcast
5:35 PM 59.0 °F - 34.0 °F 39% 30.11 in 10.0 mi East 11.5 mph - N/A   Overcast
5:36 PM 59.0 °F - 34.2 °F 39% 30.11 in 10.0 mi East 10.4 mph - N/A   Overcast
5:55 PM 59.4 °F - 34.2 °F 39% 30.09 in 10.0 mi East 12.7 mph 23.0 mph N/A   Overcast
5:56 PM 59.4 °F - 34.0 °F 39% 30.09 in 10.0 mi East 10.4 mph 23.0 mph N/A   Overcast
6:15 PM 59.0 °F - 37.6 °F 45% 30.09 in 10.0 mi East 17.3 mph 20.7 mph N/A   Overcast
6:16 PM 59.0 °F - 37.8 °F 45% 30.09 in 10.0 mi East 17.3 mph 20.7 mph N/A   Overcast
6:35 PM 58.1 °F - 37.6 °F 46% 30.08 in 10.0 mi East 19.6 mph 26.5 mph N/A   Overcast
6:36 PM 58.1 °F - 37.6 °F 46% 30.08 in 10.0 mi East 20.7 mph 26.5 mph N/A   Overcast
6:55 PM 58.1 °F - 37.2 °F 46% 30.08 in 10.0 mi East 18.4 mph 28.8 mph N/A   Overcast
7:15 PM 57.2 °F - 36.0 °F 45% 30.08 in 10.0 mi East 19.6 mph 25.3 mph N/A   Scattered Clouds
7:35 PM 56.1 °F - 35.4 °F 46% 30.07 in 10.0 mi East 20.7 mph 25.3 mph N/A   Mostly Cloudy
7:55 PM 55.8 °F - 35.4 °F 46% 30.06 in 10.0 mi East 17.3 mph 25.3 mph N/A   Mostly Cloudy
8:15 PM 55.0 °F - 34.2 °F 45% 30.06 in 10.0 mi East 20.7 mph 26.5 mph N/A   Overcast
8:35 PM 54.5 °F - 33.6 °F 45% 30.04 in 10.0 mi East 16.1 mph 25.3 mph N/A   Scattered Clouds
8:36 PM 54.5 °F - 33.6 °F 45% 30.04 in 10.0 mi East 19.6 mph 25.3 mph N/A   Scattered Clouds
8:55 PM 54.0 °F - 33.1 °F 45% 30.03 in 10.0 mi East 18.4 mph 23.0 mph N/A   Scattered Clouds
8:56 PM 54.0 °F - 33.1 °F 45% 30.03 in 10.0 mi East 18.4 mph 23.0 mph N/A   Scattered Clouds
9:15 PM 53.2 °F - 33.1 °F 46% 30.03 in 10.0 mi East 12.7 mph 19.6 mph N/A   Clear
9:16 PM 53.2 °F - 33.1 °F 46% 30.03 in 10.0 mi East 12.7 mph 19.6 mph N/A   Clear
9:35 PM 52.7 °F - 33.1 °F 47% 30.03 in 10.0 mi East 12.7 mph - N/A   Clear
9:36 PM 52.7 °F - 33.1 °F 47% 30.03 in 10.0 mi East 15.0 mph - N/A   Clear
9:55 PM 52.9 °F - 32.7 °F 46% 30.03 in 10.0 mi East 15.0 mph - N/A   Clear
9:56 PM 52.9 °F - 32.7 °F 46% 30.03 in 10.0 mi East 13.8 mph - N/A   Clear
10:15 PM 53.1 °F - 32.2 °F 45% 30.02 in 10.0 mi East 15.0 mph 20.7 mph N/A   Clear
10:16 PM 53.1 °F - 32.2 °F 45% 30.02 in 10.0 mi East 15.0 mph 20.7 mph N/A   Clear
10:35 PM 53.1 °F - 32.0 °F 45% 30.02 in 10.0 mi East 11.5 mph 20.7 mph N/A   Clear
10:36 PM 53.1 °F - 32.2 °F 45% 30.02 in 10.0 mi East 10.4 mph 20.7 mph N/A   Clear
10:55 PM 52.7 °F - 32.0 °F 45% 30.01 in 10.0 mi East 12.7 mph - N/A   Clear
11:15 PM 52.3 °F - 32.0 °F 46% 29.99 in 10.0 mi East 13.8 mph 20.7 mph N/A   Clear
11:35 PM 52.0 °F - 31.3 °F 45% 30.01 in 10.0 mi East 8.1 mph - N/A   Clear
11:55 PM 51.8 °F - 31.3 °F 46% 29.99 in 10.0 mi East 8.1 mph - N/A   Scattered Clouds